Flag for Sweden

Past Weather in Stockholm, Sweden — Yesterday and Last 2 Weeks

Now
55 °F

Fog.


Feels Like: 55 °F
Forecast: 61 / 49 °F
Wind: No wind

Location: Stockholm Bromma Airport
Current Time: Sep 29, 2020 at 11:51:39 am
Latest Report: Sep 29, 2020 at 10:50 am
Visibility: 2 mi
Pressure30.01 "Hg
Humidity: 100%
Dew Point: 55 °F
Location of StockholmLocation

Past Weather in Stockholm — Graph

°F

Stockholm Temperature Yesterday

Maximum temperature yesterday: 64 °F (at 1:50 pm)
Minimum temperature yesterday: 54 °F (at 12:20 am)
Average temperature yesterday: 57 °F

High & Low Weather Summary for the Past Weeks

 TemperatureHumidityPressure
High70 °F (Sep 24, 2:20 pm)100% (Sep 15, 6:20 am)30.30 "Hg (Sep 15, 6:20 am)
Low37 °F (Sep 20, 5:20 am)44% (Sep 17, 1:50 pm)29.50 "Hg (Sep 24, 1:50 pm)
Average56 °F84%29.92 "Hg
* Reported Sep 14 10:20 am — Sep 29 10:50 am, Stockholm. Weather by CustomWeather, © 2020

Note: Actual official high and low records may vary slightly from our data, if they occured in-between our weather recording intervals... More about our weather records

Stockholm Weather History for the Previous 24 Hours

Scroll right to see more
 ConditionsComfort  
Time TempWeatherWind HumidityBarometerVisibility
10:50 am
Tue, Sep 29
55 °FFog.No wind100%30.01 "Hg1 mi
10:20 am55 °FFog.1 mph100%30.01 "Hg1 mi
9:50 am55 °FFog.2 mph100%30.01 "Hg2 mi
8:50 am55 °FFog.5 mph100%30.01 "Hg2 mi
8:20 am55 °FFog.3 mph100%30.01 "Hg2 mi
7:50 am55 °FFog.3 mph100%30.01 "Hg2 mi
7:20 am55 °FFog.2 mph100%29.98 "Hg2 mi
6:50 am55 °FPartly sunny.3 mph100%29.98 "Hg4 mi
6:20 am55 °FPassing clouds.3 mph100%29.98 "HgN/A
5:50 am55 °FLow clouds.2 mph100%29.98 "HgN/A
5:20 am55 °FLow clouds.2 mph100%29.98 "HgN/A
4:50 am55 °FLow clouds.5 mph100%29.98 "HgN/A
4:20 am55 °FLow clouds.5 mph100%29.98 "HgN/A
3:50 am55 °FLow clouds.5 mph100%29.98 "HgN/A
3:20 am55 °FMostly cloudy.3 mph100%29.98 "HgN/A
2:50 am55 °FLow clouds.5 mph100%29.98 "HgN/A
2:20 am57 °FMostly cloudy.5 mph94%29.98 "HgN/A
1:50 am57 °FMostly cloudy.5 mph94%29.98 "HgN/A
1:20 am57 °FOvercast.3 mph94%30.01 "HgN/A
12:50 am57 °FLow clouds.5 mph94%30.01 "HgN/A
12:20 am57 °FLow clouds.3 mph94%30.01 "Hg5 mi
11:50 pm
Mon, Sep 28
57 °FFog.5 mph94%30.01 "Hg4 mi
11:20 pm57 °FLow clouds.6 mph94%30.01 "Hg5 mi
10:50 pm57 °FLow clouds.6 mph94%30.01 "HgN/A
10:20 pm57 °FMostly cloudy.6 mph94%30.01 "HgN/A
9:50 pm57 °FPassing clouds.5 mph94%30.01 "HgN/A
9:20 pm57 °FMostly cloudy.3 mph94%30.01 "HgN/A
8:50 pm57 °FPassing clouds.3 mph94%30.01 "HgN/A
8:20 pm57 °FPassing clouds.6 mph94%30.01 "HgN/A
7:50 pm59 °FPassing clouds.6 mph88%30.01 "HgN/A
7:20 pm59 °FPassing clouds.6 mph82%30.01 "HgN/A
6:50 pm59 °FPassing clouds.8 mph88%30.01 "HgN/A
6:20 pm59 °FPartly sunny.9 mph88%29.98 "HgN/A
5:50 pm59 °FScattered clouds.10 mph88%29.98 "HgN/A
5:20 pm61 °FPassing clouds.9 mph83%29.98 "HgN/A
4:50 pm63 °FPassing clouds.12 mph77%29.98 "HgN/A
4:20 pm63 °FPassing clouds.9 mph77%29.98 "HgN/A
3:50 pm63 °FPassing clouds.9 mph83%29.98 "HgN/A
3:20 pm64 °FPassing clouds.10 mph73%29.98 "HgN/A
2:50 pm64 °FPassing clouds.9 mph78%29.98 "HgN/A
1:50 pm64 °FPassing clouds.6 mph78%29.98 "HgN/A
1:20 pm63 °FPassing clouds.5 mph83%29.98 "HgN/A
12:50 pm61 °FScattered clouds.6 mph88%30.01 "HgN/A
12:20 pm57 °FBroken clouds.6 mph94%30.01 "HgN/A
11:50 am57 °FPartly sunny.5 mph94%30.01 "HgN/A
11:20 am57 °FPartly sunny.5 mph94%30.01 "HgN/A
Weather by CustomWeather, © 2020

See weather overview